Weather History for KESC - October, 2012

Change the Weather History Date:

Monday, October 29, 2012

  Actual Average Record
Temperature  
Mean Temperature 37 °F -  
Max Temperature 46 °F 48 °F 61 °F (1950)
Min Temperature 28 °F 36 °F 21 °F (2013)
Degree Days  
Heating Degree Days 28    
Moisture  
Dew Point 23 °F    
Average Humidity 62    
Maximum Humidity 80    
Minimum Humidity 37    
Precipitation  
Precipitation 0.00 in - - ()
Sea Level Pressure  
Sea Level Pressure 30.32 in    
Wind  
Wind Speed 7 mph (NNW)    
Max Wind Speed 17 mph    
Max Gust Speed 25 mph    
Visibility 10 miles    
Events      
Averages and records for this station are not official NWS values.
T = Trace of Precipitation, MM = Missing Value Source: NWS Daily Summary

Daily Weather History Graph

Daily Weather History Graph

Search for Another Location

Airport or City:

Trip Planner

Search our weather history database for the weather conditions in past years. The results will help you decide how hot, cold, wet, or windy it might be!

Date:

Astronomy

Oct. 29, 2012 Rise Set
Actual Time 8:24 AM EDT 6:38 PM EDT
Civil Twilight 7:53 AM EDT 7:09 PM EDT
Nautical Twilight 7:18 AM EDT 7:44 PM EDT
Astronomical Twilight 6:44 AM EDT 8:18 PM EDT
Moon 6:28 PM EDT (10/29) 8:16 AM EDT (10/29)
Length of Visible Light 11h 15m
Length of Day
10h 13m
Full, 100% of the Moon is Illuminated
Oct 29
Full
Oct 29
Full
Nov 6
Last Quarter
Nov 13
New
Nov 20
First Quarter

Hourly Weather History & Observations

Time (EDT) Temp. Windchill Dew Point Humidity Pressure Visibility Wind Dir Wind Speed Gust Speed Precip Events Conditions
12:15 AM 30.2 °F 24.3 °F 21.2 °F 69% 30.36 in 10.0 mi NNW 5.8 mph - N/A   Clear
12:35 AM 30.2 °F 26.7 °F 23.0 °F 75% 30.36 in 10.0 mi North 3.5 mph - N/A   Clear
12:55 AM 30.2 °F 25.4 °F 23.0 °F 75% 30.36 in 10.0 mi NNW 4.6 mph - N/A   Clear
1:15 AM 30.2 °F 25.4 °F 23.0 °F 75% 30.36 in 10.0 mi NNW 4.6 mph - N/A   Clear
1:35 AM 30.2 °F 25.4 °F 23.0 °F 75% 30.36 in 10.0 mi NNW 4.6 mph - N/A   Clear
1:55 AM 30.2 °F 25.4 °F 21.2 °F 69% 30.35 in 10.0 mi NNW 4.6 mph - N/A   Clear
2:15 AM 28.4 °F 23.3 °F 21.2 °F 74% 30.35 in 10.0 mi NNW 4.6 mph - N/A   Clear
2:35 AM 30.2 °F 23.4 °F 23.0 °F 75% 30.35 in 10.0 mi NNW 6.9 mph - N/A   Clear
2:55 AM 30.2 °F 23.4 °F 23.0 °F 75% 30.35 in 10.0 mi NNW 6.9 mph - N/A   Clear
3:15 AM 30.2 °F 25.4 °F 21.2 °F 69% 30.35 in 10.0 mi NNW 4.6 mph - N/A   Clear
3:35 AM 30.2 °F 24.3 °F 21.2 °F 69% 30.35 in 10.0 mi NNW 5.8 mph - N/A   Clear
3:55 AM 30.2 °F 25.4 °F 21.2 °F 69% 30.35 in 10.0 mi NNW 4.6 mph - N/A   Clear
4:15 AM 30.2 °F 23.4 °F 21.2 °F 69% 30.35 in 10.0 mi NNW 6.9 mph - N/A   Clear
4:35 AM 28.4 °F 21.2 °F 21.2 °F 74% 30.35 in 10.0 mi NNW 6.9 mph - N/A   Clear
4:55 AM 28.4 °F 21.2 °F 23.0 °F 80% 30.35 in 10.0 mi NNW 6.9 mph - N/A   Clear
5:15 AM 28.4 °F 21.2 °F 21.2 °F 74% 30.35 in 10.0 mi NNW 6.9 mph - N/A   Clear
5:35 AM 28.4 °F 21.2 °F 23.0 °F 80% 30.35 in 10.0 mi NNW 6.9 mph - N/A   Clear
5:55 AM 28.4 °F 21.2 °F 21.2 °F 74% 30.35 in 10.0 mi NW 6.9 mph - N/A   Clear
6:15 AM 28.4 °F 21.2 °F 21.2 °F 74% 30.35 in 10.0 mi NW 6.9 mph - N/A   Clear
6:55 AM 28.4 °F 22.2 °F 21.2 °F 74% 30.36 in 10.0 mi NNW 5.8 mph - N/A   Clear
7:15 AM 28.4 °F 22.2 °F 21.2 °F 74% 30.36 in 10.0 mi NNW 5.8 mph - N/A   Clear
7:35 AM 28.4 °F 22.2 °F 21.2 °F 74% 30.36 in 10.0 mi NNW 5.8 mph - N/A   Clear
7:55 AM 28.4 °F 24.6 °F 21.2 °F 74% 30.36 in 10.0 mi NNW 3.5 mph - N/A   Clear
8:15 AM 28.4 °F 22.2 °F 21.2 °F 74% 30.37 in 10.0 mi NNW 5.8 mph - N/A   Clear
8:35 AM 28.4 °F 23.3 °F 21.2 °F 74% 30.37 in 10.0 mi NNW 4.6 mph - N/A   Clear
8:55 AM 28.4 °F 22.2 °F 23.0 °F 80% 30.37 in 10.0 mi NNW 5.8 mph - N/A   Clear
9:15 AM 28.4 °F 22.2 °F 23.0 °F 80% 30.37 in 10.0 mi NW 5.8 mph - N/A   Clear
9:35 AM 28.4 °F 21.2 °F 23.0 °F 80% 30.37 in 10.0 mi NW 6.9 mph - N/A   Clear
9:55 AM 30.2 °F 24.3 °F 24.8 °F 80% 30.36 in 10.0 mi NNW 5.8 mph - N/A   Clear
10:35 AM 35.6 °F 32.8 °F 28.4 °F 75% 30.36 in 10.0 mi North 3.5 mph - N/A   Clear
10:55 AM 37.4 °F - 26.6 °F 65% 30.36 in 10.0 mi Calm Calm - N/A   Clear
11:15 AM 39.2 °F 35.0 °F 26.6 °F 61% 30.36 in 10.0 mi North 5.8 mph - N/A   Clear
11:35 AM 41.0 °F 38.0 °F 28.4 °F 61% 30.35 in 10.0 mi NNE 4.6 mph - N/A   Clear
11:55 AM 42.8 °F 39.3 °F 28.4 °F 57% 30.35 in 10.0 mi NNE 5.8 mph - N/A   Clear
12:15 PM 42.8 °F 37.0 °F 28.4 °F 57% 30.35 in 10.0 mi NNE 10.4 mph - N/A   Clear
12:35 PM 42.8 °F 38.6 °F 28.4 °F 57% 30.35 in 10.0 mi NNE 6.9 mph - N/A   Partly Cloudy
12:55 PM 42.8 °F 36.6 °F 28.4 °F 57% 30.34 in 10.0 mi NNE 11.5 mph 16.1 mph N/A   Partly Cloudy
1:35 PM 44.6 °F 39.7 °F 28.4 °F 53% 30.33 in 10.0 mi NNE 9.2 mph 17.3 mph N/A   Partly Cloudy
1:55 PM 44.6 °F 38.8 °F 26.6 °F 49% 30.32 in 10.0 mi North 11.5 mph 18.4 mph N/A   Scattered Clouds
2:15 PM 44.6 °F 38.8 °F 24.8 °F 46% 30.31 in 10.0 mi NNE 11.5 mph 17.3 mph N/A   Partly Cloudy
2:35 PM 44.6 °F 39.2 °F 26.6 °F 49% 30.31 in 10.0 mi NNE 10.4 mph 19.6 mph N/A   Clear
2:55 PM 46.4 °F 40.4 °F 24.8 °F 43% 30.30 in 10.0 mi North 13.8 mph 20.7 mph N/A   Clear
3:15 PM 46.4 °F 40.7 °F 23.0 °F 40% 30.29 in 10.0 mi NNE 12.7 mph 21.9 mph N/A   Clear
3:35 PM 46.4 °F 40.7 °F 23.0 °F 40% 30.29 in 10.0 mi NNE 12.7 mph 19.6 mph N/A   Clear
3:55 PM 46.4 °F 40.7 °F 21.2 °F 37% 30.29 in 10.0 mi North 12.7 mph 25.3 mph N/A   Clear
4:15 PM 46.4 °F 41.5 °F 21.2 °F 37% 30.30 in 10.0 mi NNE 10.4 mph 18.4 mph N/A   Clear
4:35 PM 46.4 °F 40.7 °F 21.2 °F 37% 30.29 in 10.0 mi NNE 12.7 mph 18.4 mph N/A   Clear
4:55 PM 44.6 °F 38.4 °F 21.2 °F 39% 30.29 in 10.0 mi NNE 12.7 mph 19.6 mph N/A   Clear
5:15 PM 44.6 °F 37.2 °F 21.2 °F 39% 30.29 in 10.0 mi North 17.3 mph 25.3 mph N/A   Clear
5:35 PM 44.6 °F 37.8 °F 21.2 °F 39% 30.29 in 10.0 mi North 15.0 mph 23.0 mph N/A   Clear
5:55 PM 42.8 °F 37.0 °F 21.2 °F 42% 30.29 in 10.0 mi North 10.4 mph 19.6 mph N/A   Clear
6:15 PM 42.8 °F 37.0 °F 21.2 °F 42% 30.29 in 10.0 mi North 10.4 mph - N/A   Clear
6:35 PM 42.8 °F 38.0 °F 21.2 °F 42% 30.29 in 10.0 mi North 8.1 mph 19.6 mph N/A   Clear
6:55 PM 41.0 °F 34.7 °F 21.2 °F 45% 30.28 in 10.0 mi NNW 10.4 mph 17.3 mph N/A   Clear
7:15 PM 39.2 °F 33.0 °F 21.2 °F 49% 30.28 in 10.0 mi North 9.2 mph - N/A   Clear
7:35 PM 39.2 °F 33.6 °F 21.2 °F 49% 30.28 in 10.0 mi North 8.1 mph - N/A   Clear
7:55 PM 39.2 °F 33.0 °F 21.2 °F 49% 30.27 in 10.0 mi NNW 9.2 mph - N/A   Clear
8:15 PM 39.2 °F 35.0 °F 23.0 °F 52% 30.27 in 10.0 mi NNW 5.8 mph - N/A   Clear
8:35 PM 37.4 °F 32.8 °F 23.0 °F 56% 30.27 in 10.0 mi NNW 5.8 mph - N/A   Clear
8:55 PM 37.4 °F 32.8 °F 24.8 °F 60% 30.26 in 10.0 mi NNW 5.8 mph - N/A   Clear
9:15 PM 37.4 °F 32.1 °F 24.8 °F 60% 30.26 in 10.0 mi NNW 6.9 mph - N/A   Clear
9:35 PM 37.4 °F 32.8 °F 24.8 °F 60% 30.25 in 10.0 mi NNW 5.8 mph - N/A   Clear
9:55 PM 37.4 °F 32.1 °F 24.8 °F 60% 30.25 in 10.0 mi NNW 6.9 mph - N/A   Clear
10:15 PM 37.4 °F 32.1 °F 24.8 °F 60% 30.24 in 10.0 mi NNW 6.9 mph - N/A   Clear
10:35 PM 37.4 °F 30.8 °F 26.6 °F 65% 30.23 in 10.0 mi NNW 9.2 mph - N/A   Clear
10:55 PM 37.4 °F 31.4 °F 26.6 °F 65% 30.22 in 10.0 mi NNW 8.1 mph - N/A   Clear
11:15 PM 37.4 °F 30.8 °F 26.6 °F 65% 30.20 in 10.0 mi NNW 9.2 mph - N/A   Clear
11:35 PM 37.4 °F 31.4 °F 26.6 °F 65% 30.19 in 10.0 mi NNW 8.1 mph - N/A   Clear
11:55 PM 37.4 °F 31.4 °F 26.6 °F 65% 30.18 in 10.0 mi NNW 8.1 mph - N/A   Scattered Clouds